Hourly Data Report for July 23, 2021

CLYDE RIVER A
NUNAVUT
Current Station Operator: NAVCAN

70°29'09.000" N
68°31'01.000" W
26.50 m
2400804
71090
YCY

Download Data

Hourly Data (July 2021)
Hourly Data Report for July 23, 2021
TIME
LST
Temp Definition
°C
Dew Point Definition
°C
Rel Hum Definition
%
Precip. Amount Definition
mm

Wind Dir Definition
10's deg

Wind Spd Definition
km/h
Visibility Definition
km
Stn Press Definition
kPa
Hmdx Definition


Wind Chill Definition


Weather Definition


00:00 2.2 2.1 99 0.0 13 17 16.1 99.50     LegendNANA
01:00 2.1 2.1 100 0.0 13 13 2.4 99.44     Fog
02:00 2.1 2.1 100 0.0 12 21 2.4 99.38     Fog
03:00 1.9 1.9 100 0.0 6 8 2.8 99.41     Rain, Fog
04:00 1.4 1.3 99 0.0 32 30 16.1 99.45     LegendNANA
05:00 0.5 0.2 98 0.0 31 34 2.4 99.51     Snow
06:00 0.4 0.1 98 0.0 33 26 2.0 99.58     Snow
07:00 0.6 0.3 98 0.0 33 26 3.2 99.67     Snow
08:00 0.9 0.6 98 0.0 33 37 8.1 99.74     Snow
09:00 1.6 1.0 96 0.0 33 46 9.7 99.76     Rain, Fog
10:00 1.6 1.1 97 0.0 33 45 9.7 99.84     Rain, Fog
11:00 2.0 1.3 95 0.0 32 41 9.7 99.90     Rain, Fog
12:00 2.8 1.5 91 0.0 32 46 16.1 99.95     LegendNANA
13:00 3.0 1.6 90 0.0 32 43 16.1 100.04     LegendNANA
14:00 3.9 1.6 85 0.0 33 45 16.1 100.08     LegendNANA
15:00 3.5 1.0 84 0.0 33 37 16.1 100.10     LegendNANA
16:00 3.9 1.5 84 0.0 34 37 16.1 100.14     LegendNANA
17:00 3.4 1.4 87 0.0 34 30 16.1 100.22     LegendNANA
18:00 3.1 0.9 85 0.0 33 28 16.1 100.26     LegendNANA
19:00 3.4 0.7 83 0.0 32 24 16.1 100.30     LegendNANA
20:00 3.1 0.6 83 0.0 33 24 16.1 100.30     LegendNANA
21:00 2.2 0.4 88 0.0 34 18 16.1 100.29     LegendNANA
22:00 1.4 0.1 91 0.0 33 13 16.1 100.29     LegendNANA
23:00 0.2 -0.5 95 0.0 35 8 16.1 100.29     LegendNANA

Notes on Data Quality.

Legend

  • E = Estimated
  • M = Missing
  • NA = Not Available*
  • [empty] = Indicates an unobserved value
Date modified: